| time (UTC) | temp F | wind direction | speed MPH | gust MPH | rain 1hr in | rain 24hr in | rain mn in | humidity % | barometer mb |
| 20260902103423 | 65 | 144 | 4.0 | 8.0 | 0.00 | 0.00 | 0.00 | 66 | 1017.7 |
| 20260902102424 | 65 | 167 | 7.0 | 11.0 | 0.00 | 0.00 | 0.00 | 66 | 1017.8 |
| 20260902101424 | 65 | 176 | 7.0 | 13.0 | 0.00 | 0.00 | 0.00 | 65 | 1017.8 |
| 20260902100439 | 65 | 172 | 5.0 | 7.0 | 0.00 | 0.00 | 0.00 | 63 | 1017.7 |
| 20260902095522 | 65 | 172 | 4.0 | 8.0 | 0.00 | 0.00 | 0.00 | 66 | 1017.8 |
| 20260902094523 | 64 | 174 | 4.0 | 7.0 | 0.00 | 0.00 | 0.00 | 68 | 1017.8 |
| 20260902092522 | 64 | 180 | 3.0 | 5.0 | 0.00 | 0.00 | 0.00 | 70 | 1017.9 |
| 20260902091525 | 64 | 180 | 2.0 | 4.0 | 0.00 | 0.00 | 0.00 | 69 | 1018.0 |
| 20260902090623 | 64 | 202 | 3.0 | 4.0 | 0.00 | 0.00 | 0.00 | 66 | 1018.0 |
| 20260902085623 | 65 | 247 | 2.0 | 3.0 | 0.00 | 0.00 | 0.00 | 63 | 1018.2 |
| 20260902082724 | 66 | 247 | 2.0 | 3.0 | 0.00 | 0.00 | 0.00 | 59 | 1018.3 |
| 20260902081724 | 65 | 247 | 1.0 | 3.0 | 0.00 | 0.00 | 0.00 | 61 | 1018.2 |
| 20260902080822 | 65 | 292 | 0.0 | 1.0 | 0.00 | 0.00 | 0.00 | 65 | 1018.3 |
| 20260902075823 | 66 | 292 | 2.0 | 3.0 | 0.00 | 0.00 | 0.00 | 65 | 1018.2 |
| 20260902072922 | 67 | 180 | 4.0 | 6.0 | 0.00 | 0.00 | 0.00 | 67 | 1018.2 |
| 20260902071942 | 67 | 166 | 6.0 | 10.0 | 0.00 | 0.00 | 0.00 | 68 | 1018.0 |
| 20260902070922 | 67 | 183 | 4.0 | 6.0 | 0.00 | 0.00 | 0.00 | 65 | 1018.2 |
| 20260902065023 | 68 | 178 | 5.0 | 8.0 | 0.00 | 0.00 | 0.00 | 57 | 1017.9 |
| 20260902063022 | 68 | 174 | 6.0 | 10.0 | 0.00 | 0.00 | 0.00 | 55 | 1017.9 |
| 20260902062023 | 68 | 180 | 5.0 | 8.0 | 0.00 | 0.00 | 0.00 | 54 | 1018.0 |
| 20260902061022 | 68 | 181 | 4.0 | 7.0 | 0.00 | 0.00 | 0.00 | 52 | 1017.9 |
| 20260902060027 | 69 | 205 | 3.0 | 4.0 | 0.00 | 0.00 | 0.00 | 51 | 1017.9 |
| 20260902054126 | 69 | 189 | 4.0 | 6.0 | 0.00 | 0.00 | 0.00 | 53 | 1017.9 |
| 20260902054027 | 69 | 179 | 5.0 | 7.0 | 0.00 | 0.00 | 0.00 | 53 | 1017.8 |
| 20260902053026 | 69 | 187 | 3.0 | 5.0 | 0.00 | 0.00 | 0.00 | 54 | 1017.8 |
| 20260902052027 | 69 | 177 | 4.0 | 7.0 | 0.00 | 0.00 | 0.00 | 55 | 1017.8 |
| 20260902051030 | 69 | 178 | 5.0 | 7.0 | 0.00 | 0.00 | 0.00 | 55 | 1017.8 |
| 20260902045028 | 70 | 180 | 4.0 | 6.0 | 0.00 | 0.00 | 0.00 | 55 | 1017.9 |
| 20260902044027 | 70 | 177 | 5.0 | 6.0 | 0.00 | 0.00 | 0.00 | 58 | 1017.8 |
| 20260902043026 | 70 | 164 | 4.0 | 8.0 | 0.00 | 0.00 | 0.00 | 60 | 1017.8 |
| 20260902042044 | 71 | 172 | 5.0 | 7.0 | 0.00 | 0.00 | 0.00 | 61 | 1017.7 |
| 20260902041928 | 71 | 157 | 5.0 | 9.0 | 0.00 | 0.00 | 0.00 | 60 | 1017.8 |
| 20260902041028 | 71 | 156 | 4.0 | 8.0 | 0.00 | 0.00 | 0.00 | 56 | 1017.6 |
| 20260902040127 | 71 | 168 | 6.0 | 10.0 | 0.00 | 0.00 | 0.00 | 52 | 1017.8 |
| 20260902035127 | 71 | 161 | 5.0 | 7.0 | 0.00 | 0.00 | 0.00 | 51 | 1017.6 |
| 20260902035028 | 71 | 180 | 3.0 | 6.0 | 0.00 | 0.00 | 0.00 | 51 | 1017.6 |
| 20260902034027 | 72 | 157 | 4.0 | 5.0 | 0.00 | 0.00 | 0.00 | 51 | 1017.7 |
| 20260902033026 | 72 | 165 | 5.0 | 8.0 | 0.00 | 0.00 | 0.00 | 52 | 1017.5 |
| 20260902032043 | 72 | 179 | 3.0 | 7.0 | 0.00 | 0.00 | 0.00 | 54 | 1017.3 |
| 20260902031028 | 72 | 157 | 4.0 | 7.0 | 0.00 | 0.00 | 0.00 | 51 | 1017.2 |
| 20260902030026 | 72 | 162 | 3.0 | 5.0 | 0.00 | 0.00 | 0.00 | 49 | 1017.1 |
| 20260902025028 | 74 | 178 | 3.0 | 7.0 | 0.00 | 0.00 | 0.00 | 42 | 1017.0 |
| 20260902024030 | 74 | 174 | 6.0 | 9.0 | 0.00 | 0.00 | 0.00 | 41 | 1016.7 |
| 20260902023127 | 74 | 186 | 6.0 | 8.0 | 0.00 | 0.00 | 0.00 | 42 | 1016.6 |
| 20260902020328 | 74 | 185 | 7.0 | 9.0 | 0.00 | 0.00 | 0.00 | 46 | 1016.6 |
| 20260902013327 | 76 | 185 | 5.0 | 7.0 | 0.00 | 0.00 | 0.00 | 43 | 1016.5 |
| 20260902012329 | 77 | 171 | 5.0 | 7.0 | 0.00 | 0.00 | 0.00 | 42 | 1016.7 |
| 20260902011328 | 77 | 164 | 7.0 | 11.0 | 0.00 | 0.00 | 0.00 | 39 | 1016.7 |
| 20260902010328 | 77 | 168 | 6.0 | 11.0 | 0.00 | 0.00 | 0.00 | 38 | 1017.0 |
| 20260902005327 | 77 | 164 | 6.0 | 9.0 | 0.00 | 0.00 | 0.00 | 38 | 1017.1 |
| 20260902004329 | 77 | 156 | 7.0 | 12.0 | 0.00 | 0.00 | 0.00 | 38 | 1017.1 |
| 20260902002526 | 76 | 162 | 7.0 | 10.0 | 0.00 | 0.02 | 0.00 | 42 | 1017.2 |
| 20260902001528 | 77 | 160 | 5.0 | 9.0 | 0.00 | 0.02 | 0.00 | 42 | 1017.3 |
| 20260902000527 | 77 | 159 | 5.0 | 10.0 | 0.00 | 0.02 | 0.00 | 41 | 1017.2 |
| 20260901235526 | 77 | 160 | 7.0 | 12.0 | 0.00 | 0.02 | 0.00 | 40 | 1017.1 |
| 20260901233626 | 77 | 168 | 6.0 | 13.0 | 0.00 | 0.02 | 0.00 | 41 | 1017.5 |
| 20260901232726 | 77 | 164 | 5.0 | 10.0 | 0.00 | 0.02 | 0.00 | 39 | 1017.4 |
| 20260901232628 | 77 | 169 | 4.0 | 9.0 | 0.00 | 0.02 | 0.00 | 40 | 1017.3 |
| 20260901231628 | 77 | 142 | 6.0 | 11.0 | 0.00 | 0.02 | 0.00 | 40 | 1017.4 |
| 20260901230627 | 77 | 151 | 3.0 | 5.0 | 0.00 | 0.02 | 0.00 | 39 | 1017.5 |
| 20260901225626 | 77 | 154 | 5.0 | 11.0 | 0.00 | 0.02 | 0.00 | 40 | 1017.5 |
| 20260901223629 | 77 | 133 | 8.0 | 11.0 | 0.00 | 0.02 | 0.00 | 42 | 1017.8 |
| 20260901222628 | 77 | 146 | 3.0 | 8.0 | 0.00 | 0.02 | 0.00 | 43 | 1018.0 |
| 20260901221628 | 77 | 127 | 6.0 | 11.0 | 0.00 | 0.02 | 0.00 | 42 | 1018.3 |
| 20260901220645 | 77 | 146 | 6.0 | 11.0 | 0.00 | 0.02 | 0.00 | 42 | 1018.3 |
| 20260901215727 | 76 | 163 | 6.0 | 11.0 | 0.00 | 0.02 | 0.00 | 44 | 1018.5 |
| 20260901214827 | 75 | 135 | 6.0 | 11.0 | 0.00 | 0.02 | 0.00 | 44 | 1018.7 |
| 20260901214728 | 75 | 142 | 6.0 | 8.0 | 0.00 | 0.02 | 0.00 | 44 | 1018.7 |
| 20260901213729 | 76 | 136 | 7.0 | 10.0 | 0.00 | 0.02 | 0.00 | 43 | 1018.9 |
| 20260901211728 | 76 | 175 | 7.0 | 10.0 | 0.00 | 0.02 | 0.00 | 42 | 1019.2 |
| 20260901210729 | 76 | 169 | 7.0 | 12.0 | 0.00 | 0.02 | 0.00 | 43 | 1019.5 |
| 20260901205728 | 75 | 158 | 5.0 | 8.0 | 0.00 | 0.02 | 0.00 | 45 | 1019.6 |
| 20260901204728 | 76 | 138 | 2.0 | 5.0 | 0.00 | 0.02 | 0.00 | 44 | 1019.7 |
| 20260901203728 | 77 | 140 | 5.0 | 7.0 | 0.00 | 0.02 | 0.00 | 43 | 1019.7 |
| 20260901202826 | 76 | 133 | 6.0 | 9.0 | 0.00 | 0.02 | 0.00 | 44 | 1019.7 |
| 20260901201827 | 76 | 142 | 5.0 | 8.0 | 0.00 | 0.02 | 0.00 | 43 | 1020.1 |
| 20260901200829 | 77 | 136 | 3.0 | 6.0 | 0.00 | 0.02 | 0.00 | 44 | 1020.3 |
| 20260901195826 | 76 | 168 | 4.0 | 8.0 | 0.00 | 0.02 | 0.00 | 47 | 1020.3 |
| 20260901193826 | 74 | 140 | 4.0 | 8.0 | 0.00 | 0.02 | 0.00 | 50 | 1020.8 |
| 20260901192826 | 74 | 121 | 3.0 | 5.0 | 0.00 | 0.02 | 0.00 | 48 | 1020.9 |
| 20260901190844 | 75 | 172 | 5.0 | 8.0 | 0.00 | 0.02 | 0.00 | 45 | 1021.1 |
| 20260901185928 | 75 | 127 | 4.0 | 7.0 | 0.00 | 0.02 | 0.00 | 46 | 1021.2 |
| 20260901184929 | 74 | 143 | 5.0 | 9.0 | 0.00 | 0.02 | 0.00 | 49 | 1021.2 |
| 20260901183926 | 73 | 127 | 3.0 | 7.0 | 0.00 | 0.02 | 0.00 | 51 | 1021.5 |
| 20260901183026 | 72 | 146 | 3.0 | 7.0 | 0.00 | 0.02 | 0.00 | 51 | 1021.8 |
| 20260901182027 | 72 | 123 | 4.0 | 8.0 | 0.00 | 0.02 | 0.00 | 51 | 1022.0 |
| 20260901181927 | 72 | 174 | 3.0 | 7.0 | 0.00 | 0.02 | 0.00 | 51 | 1022.1 |
| 20260901175927 | 71 | 156 | 6.0 | 11.0 | 0.00 | 0.02 | 0.00 | 52 | 1022.2 |
| 20260901174929 | 71 | 67 | 0.0 | 0.0 | 0.00 | 0.02 | 0.00 | 51 | 1022.3 |
| 20260901174026 | 72 | 140 | 2.0 | 5.0 | 0.00 | 0.02 | 0.00 | 53 | 1022.5 |
| 20260901173043 | 71 | 135 | 0.0 | 2.0 | 0.00 | 0.02 | 0.00 | 54 | 1022.4 |
| 20260901172127 | 70 | 141 | 1.0 | 5.0 | 0.00 | 0.02 | 0.00 | 58 | 1022.5 |
| 20260901171127 | 68 | 112 | 0.0 | 2.0 | 0.00 | 0.02 | 0.00 | 58 | 1022.5 |
| 20260901165128 | 68 | 155 | 3.0 | 5.0 | 0.00 | 0.02 | 0.00 | 61 | 1022.5 |
| 20260901164128 | 66 | 137 | 3.0 | 5.0 | 0.00 | 0.02 | 0.00 | 64 | 1022.4 |
| 20260901163126 | 65 | 116 | 2.0 | 5.0 | 0.00 | 0.02 | 0.00 | 66 | 1022.5 |
| 20260901163028 | 65 | 135 | 3.0 | 5.0 | 0.00 | 0.02 | 0.00 | 65 | 1022.4 |
| 20260901161027 | 66 | 154 | 2.0 | 4.0 | 0.00 | 0.02 | 0.00 | 65 | 1022.5 |
| 20260901160026 | 66 | 157 | 2.0 | 4.0 | 0.00 | 0.02 | 0.00 | 63 | 1022.4 |
| 20260901155028 | 66 | 156 | 6.0 | 9.0 | 0.00 | 0.02 | 0.00 | 66 | 1022.5 |
| 20260901154126 | 65 | 157 | 0.0 | 0.0 | 0.00 | 0.02 | 0.00 | 68 | 1022.4 |
| 20260901153128 | 63 | 180 | 3.0 | 3.0 | 0.00 | 0.02 | 0.00 | 72 | 1022.5 |
| 20260901152128 | 62 | 180 | 0.0 | 0.0 | 0.00 | 0.02 | 0.00 | 73 | 1022.5 |
| 20260901152027 | 62 | 180 | 0.0 | 0.0 | 0.00 | 0.02 | 0.00 | 73 | 1022.5 |
| 20260901151028 | 62 | 180 | 0.0 | 2.0 | 0.00 | 0.02 | 0.00 | 71 | 1022.7 |
| 20260901150027 | 62 | 180 | 3.0 | 5.0 | 0.00 | 0.02 | 0.00 | 70 | 1022.7 |
| 20260901144128 | 63 | 45 | 0.0 | 1.0 | 0.00 | 0.02 | 0.00 | 67 | 1022.5 |
| 20260901143128 | 62 | 360 | 0.0 | 0.0 | 0.00 | 0.02 | 0.00 | 69 | 1022.5 |
| 20260901142127 | 62 | 225 | 0.0 | 0.0 | 0.00 | 0.02 | 0.00 | 69 | 1022.5 |
| 20260901135226 | 58 | 225 | 0.0 | 0.0 | 0.00 | 0.02 | 0.00 | 75 | 1022.1 |
| 20260901134227 | 58 | 225 | 0.0 | 2.0 | 0.00 | 0.02 | 0.00 | 77 | 1022.0 |
| 20260901133227 | 57 | 225 | 0.0 | 0.0 | 0.00 | 0.02 | 0.00 | 79 | 1021.9 |
| 20260901132246 | 56 | 225 | 1.0 | 3.0 | 0.00 | 0.02 | 0.00 | 81 | 1021.9 |
| 20260901131228 | 56 | 225 | 0.0 | 0.0 | 0.00 | 0.02 | 0.00 | 82 | 1021.8 |
| 20260901130228 | 55 | 225 | 0.0 | 0.0 | 0.00 | 0.02 | 0.00 | 84 | 1021.7 |
| 20260901124243 | 54 | 225 | 0.0 | 1.0 | 0.00 | 0.02 | 0.00 | 85 | 1021.6 |
| 20260901122228 | 55 | 225 | 0.0 | 1.0 | 0.00 | 0.02 | 0.00 | 85 | 1021.8 |
| 20260901121230 | 55 | 225 | 1.0 | 2.0 | 0.00 | 0.02 | 0.00 | 85 | 1021.7 |
| 20260901120326 | 55 | 225 | 2.0 | 4.0 | 0.00 | 0.02 | 0.00 | 86 | 1021.8 |
| 20260901115326 | 55 | 225 | 0.0 | 0.0 | 0.00 | 0.02 | 0.00 | 87 | 1021.8 |
| 20260901114329 | 55 | 225 | 0.0 | 1.0 | 0.00 | 0.02 | 0.00 | 86 | 1021.6 |
| 20260901113344 | 54 | 225 | 0.0 | 0.0 | 0.00 | 0.02 | 0.00 | 87 | 1021.6 |
| 20260901111426 | 54 | 225 | 0.0 | 0.0 | 0.00 | 0.02 | 0.00 | 85 | 1021.5 |
| 20260901111327 | 54 | 225 | 0.0 | 0.0 | 0.00 | 0.02 | 0.00 | 85 | 1021.5 |
| 20260901105327 | 55 | 225 | 0.0 | 0.0 | 0.00 | 0.02 | 0.00 | 84 | 1021.8 |
| 20260901104329 | 55 | 225 | 0.0 | 0.0 | 0.00 | 0.02 | 0.00 | 83 | 1021.6 |